FW6583 Weather Reports


Display with metric or nautical units.
time (UTC)temp
F
wind
direction
speed
MPH
gust
MPH
rain 1hr
in
rain 24hr
in
rain mn
in
humidity
%
barometer
mb
20260507165526 58 134 1.0 3.0 0.00 0.03 0.00 52 1015.1
20260507165026 58 252 1.0 4.0 0.00 0.03 0.00 56 1015.1
20260507164555 57 229 1.0 4.0 0.00 0.03 0.00 53 1015.2
20260507164027 56 281 1.0 3.0 0.00 0.03 0.00 56 1015.1
20260507163601 56 270 1.0 3.0 0.00 0.03 0.00 53 1015.3
20260507163048 56 195 1.0 3.0 0.00 0.03 0.00 54 1015.2
20260507162524 56 25 1.0 3.0 0.00 0.03 0.00 56 1015.3
20260507162024 56 165 1.0 3.0 0.00 0.03 0.00 55 1015.3
20260507161548 55 98 1.0 4.0 0.00 0.03 0.00 53 1015.4
20260507161023 55 323 1.0 4.0 0.00 0.03 0.00 53 1015.4
20260507160528 55 311 0.0 2.0 0.00 0.03 0.00 57 1015.5
20260507160048 56 217 1.0 2.0 0.00 0.03 0.00 57 1015.4
20260507155528 55 124 1.0 5.0 0.00 0.07 0.00 56 1015.5
20260507155026 55 0 1.0 5.0 0.00 0.07 0.00 56 1015.5
20260507154546 55 349 1.0 4.0 0.00 0.07 0.00 59 1015.7
20260507154026 55 0 0.0 4.0 0.00 0.07 0.00 57 1015.6
20260507153526 55 7 0.0 4.0 0.00 0.07 0.00 57 1015.7
20260507153041 55 326 2.0 4.0 0.00 0.07 0.00 60 1015.7
20260507152526 54 308 1.0 3.0 0.00 0.07 0.00 57 1015.8
20260507152027 54 346 1.0 3.0 0.00 0.07 0.00 62 1015.8
20260507151539 53 269 0.0 3.0 0.00 0.07 0.00 66 1015.9
20260507151026 53 243 0.0 3.0 0.00 0.07 0.00 67 1016.0
20260507150527 53 283 0.0 1.0 0.00 0.07 0.00 64 1016.0
20260507150048 52 5 1.0 3.0 0.00 0.07 0.00 63 1016.0
20260507145524 52 0 0.0 3.0 0.00 0.07 0.00 62 1016.0
20260507145023 52 0 0.0 3.0 0.00 0.07 0.00 63 1016.2
20260507144543 52 295 1.0 3.0 0.00 0.07 0.00 65 1016.2
20260507144024 52 233 1.0 3.0 0.00 0.07 0.00 64 1016.2
20260507143524 52 0 0.0 2.0 0.00 0.07 0.00 65 1016.2
20260507143100 51 312 0.0 1.0 0.00 0.07 0.00 69 1016.3
20260507142527 51 0 0.0 1.0 0.00 0.07 0.00 68 1016.3
20260507142026 51 25 0.0 1.0 0.00 0.07 0.00 66 1016.5
20260507141600 50 0 0.0 1.0 0.00 0.07 0.00 70 1016.6
20260507141026 50 0 0.0 0.0 0.00 0.07 0.00 69 1016.7
20260507140525 50 0 0.0 0.0 0.00 0.07 0.00 71 1016.8
20260507140040 50 0 0.0 0.0 0.00 0.07 0.00 69 1016.8
20260507135526 49 0 0.0 0.0 0.00 0.07 0.00 71 1017.0
20260507135026 49 0 0.0 0.0 0.00 0.07 0.00 70 1017.1
20260507134546 49 0 0.0 0.0 0.00 0.07 0.00 70 1017.2
20260507134029 49 0 0.0 0.0 0.00 0.07 0.00 72 1017.1
20260507133528 48 0 0.0 0.0 0.00 0.07 0.00 71 1017.2
20260507133046 48 0 0.0 0.0 0.00 0.07 0.00 72 1017.3
20260507132524 48 0 0.0 0.0 0.00 0.07 0.00 73 1017.3
20260507132023 47 0 0.0 0.0 0.00 0.07 0.00 77 1017.3
20260507131554 47 0 0.0 0.0 0.00 0.07 0.00 78 1017.3
20260507131026 46 0 0.0 0.0 0.00 0.07 0.00 82 1017.3
20260507130527 46 0 0.0 0.0 0.00 0.07 0.00 87 1017.3
20260507130046 45 0 0.0 0.0 0.00 0.07 0.00 86 1017.2
20260507125526 44 0 0.0 0.0 0.00 0.09 0.00 88 1017.3
20260507125027 44 0 0.0 0.0 0.00 0.09 0.00 94 1017.2
20260507124543 44 0 0.0 0.0 0.00 0.09 0.00 95 1017.2
20260507124026 44 0 0.0 0.0 0.00 0.09 0.00 95 1017.2
20260507123523 44 0 0.0 0.0 0.00 0.09 0.00 95 1017.3
20260507123043 44 0 0.0 0.0 0.00 0.09 0.00 95 1017.3
20260507122526 44 0 0.0 0.0 0.00 0.09 0.00 95 1017.3
20260507122026 43 0 0.0 0.0 0.00 0.09 0.00 96 1017.3
20260507121546 43 0 0.0 0.0 0.00 0.09 0.00 96 1017.3
20260507121027 43 0 0.0 0.0 0.00 0.09 0.00 95 1017.3
20260507120529 43 0 0.0 0.0 0.00 0.09 0.00 95 1017.3
20260507120047 43 0 0.0 0.0 0.00 0.09 0.00 95 1017.4
20260507115524 43 0 0.0 0.0 0.00 0.11 0.00 95 1017.3
20260507115023 43 0 0.0 0.0 0.00 0.11 0.00 95 1017.2
20260507114542 43 0 0.0 0.0 0.00 0.11 0.00 95 1017.2
20260507114029 42 0 0.0 0.0 0.00 0.11 0.00 95 1017.0
20260507113530 42 0 0.0 0.0 0.00 0.11 0.00 94 1017.2
20260507113042 42 0 0.0 0.0 0.00 0.11 0.00 94 1017.1
20260507112523 42 0 0.0 0.0 0.00 0.11 0.00 94 1017.1
20260507112024 42 0 0.0 0.0 0.00 0.11 0.00 94 1017.0
20260507111541 42 0 0.0 0.0 0.00 0.11 0.00 93 1016.9
20260507111026 42 0 0.0 0.0 0.00 0.11 0.00 94 1016.8
20260507110526 42 0 0.0 0.0 0.00 0.11 0.00 93 1016.8
20260507110040 42 0 0.0 0.0 0.00 0.11 0.00 93 1016.8
20260507105525 42 0 0.0 0.0 0.00 0.18 0.00 92 1016.8
20260507105026 42 0 0.0 0.0 0.00 0.18 0.00 92 1016.7
20260507104539 42 0 0.0 0.0 0.00 0.18 0.00 92 1016.5
20260507104027 42 0 0.0 0.0 0.00 0.18 0.00 92 1016.6
20260507103524 43 0 0.0 0.0 0.00 0.18 0.00 92 1016.6
20260507103044 43 0 0.0 0.0 0.00 0.18 0.00 91 1016.6
20260507102523 43 0 0.0 0.0 0.00 0.18 0.00 91 1016.5
20260507102024 43 0 0.0 0.0 0.00 0.18 0.00 91 1016.4
20260507101542 43 0 0.0 0.0 0.00 0.18 0.00 89 1016.5
20260507101025 43 0 0.0 0.0 0.00 0.18 0.00 89 1016.4
20260507100523 44 0 0.0 0.0 0.00 0.18 0.00 89 1016.4
20260507100052 44 0 0.0 0.0 0.00 0.18 0.00 89 1016.3
20260507095526 44 0 0.0 0.0 0.00 0.43 0.00 87 1016.3
20260507095027 44 0 0.0 0.0 0.00 0.43 0.00 88 1016.2
20260507094540 44 0 0.0 0.0 0.00 0.43 0.00 87 1016.3
20260507094026 45 0 0.0 0.0 0.00 0.43 0.00 85 1016.3
20260507093523 45 0 0.0 0.0 0.00 0.43 0.00 85 1016.3
20260507093039 45 0 0.0 0.0 0.00 0.43 0.00 84 1016.4
20260507092526 45 0 0.0 0.0 0.00 0.43 0.00 84 1016.2
20260507092025 45 0 0.0 1.0 0.00 0.43 0.00 83 1016.3
20260507091547 45 0 0.0 1.0 0.00 0.43 0.00 84 1016.1
20260507091026 46 0 0.0 1.0 0.00 0.43 0.00 83 1016.2
20260507090526 46 0 0.0 1.0 0.00 0.43 0.00 83 1016.3
20260507090050 46 0 0.0 1.0 0.00 0.43 0.00 82 1016.3
20260507085523 46 0 0.0 1.0 0.00 0.49 0.00 81 1016.3
20260507085023 46 0 0.0 1.0 0.00 0.49 0.00 81 1016.2
20260507084550 47 0 0.0 1.0 0.00 0.49 0.00 81 1016.2
20260507084027 47 0 0.0 1.0 0.00 0.49 0.00 84 1016.3
20260507083526 47 0 0.0 0.0 0.00 0.49 0.00 83 1016.2
20260507083041 47 0 0.0 0.0 0.00 0.49 0.00 84 1016.4
20260507082523 47 0 0.0 0.0 0.00 0.49 0.00 84 1016.3
20260507082024 47 0 0.0 0.0 0.00 0.49 0.00 84 1016.2
20260507081550 47 0 0.0 1.0 0.00 0.49 0.00 84 1016.2
20260507081026 47 0 0.0 1.0 0.00 0.49 0.00 84 1016.3
20260507080528 47 0 0.0 0.0 0.00 0.49 0.00 86 1016.3
20260507080047 47 0 0.0 0.0 0.00 0.49 0.00 86 1016.3
20260507075526 48 0 0.0 0.0 0.00 0.49 0.00 86 1016.2
20260507075028 48 0 0.0 0.0 0.00 0.49 0.00 86 1016.1
20260507074546 48 0 0.0 0.0 0.00 0.49 0.00 86 1016.2
20260507074025 48 0 0.0 0.0 0.00 0.49 0.00 85 1016.1
20260507073524 48 0 0.0 0.0 0.00 0.49 0.00 85 1016.1
20260507073040 48 0 0.0 1.0 0.00 0.49 0.00 86 1016.2
20260507072528 48 0 0.0 1.0 0.00 0.49 0.00 86 1016.2
20260507072022 48 0 0.0 1.0 0.00 0.49 0.00 85 1016.2
20260507071539 48 0 0.0 0.0 0.00 0.49 0.00 86 1016.1
20260507071031 48 0 0.0 0.0 0.00 0.49 0.00 86 1016.1
20260507070526 48 0 0.0 0.0 0.00 0.49 0.00 85 1016.2
20260507070049 48 0 0.0 0.0 0.00 0.49 0.00 85 1016.1
20260507065523 48 0 0.0 0.0 0.00 0.49 0.00 85 1016.2
20260507065024 48 0 0.0 0.0 0.00 0.49 0.00 87 1016.2
20260507064618 48 0 0.0 0.0 0.00 0.49 0.00 88 1016.0
20260507064024 48 0 0.0 0.0 0.00 0.49 0.00 88 1016.1
20260507063525 48 0 0.0 0.0 0.00 0.49 0.00 88 1016.1
20260507063042 49 0 0.0 0.0 0.00 0.49 0.00 88 1016.1
20260507062525 49 0 0.0 0.0 0.00 0.49 0.00 87 1016.0
20260507062024 49 0 0.0 0.0 0.00 0.49 0.00 86 1016.1
20260507061542 49 0 0.0 0.0 0.00 0.49 0.00 86 1016.1
20260507061024 49 0 0.0 0.0 0.00 0.49 0.00 87 1016.0
20260507060526 49 0 0.0 0.0 0.00 0.49 0.00 86 1016.1
20260507055523 49 0 0.0 0.0 0.00 0.49 0.00 86 1016.1
20260507055025 49 0 0.0 0.0 0.00 0.49 0.00 86 1016.1
20260507054546 49 0 0.0 0.0 0.00 0.49 0.00 86 1016.3
20260507054026 49 0 0.0 1.0 0.00 0.49 0.00 86 1016.3
20260507053526 49 0 0.0 1.0 0.00 0.49 0.00 85 1016.4
20260507053043 49 88 0.0 1.0 0.00 0.49 0.00 87 1016.5
20260507052524 49 88 0.0 1.0 0.00 0.49 0.00 89 1016.5
20260507052026 49 0 0.0 1.0 0.00 0.49 0.00 92 1016.5
20260507051551 49 0 0.0 4.0 0.00 0.49 0.00 93 1016.7
20260507051026 49 0 0.0 4.0 0.00 0.49 0.00 95 1016.7
20260507050527 50 8 1.0 4.0 0.00 0.49 0.00 96 1016.6
20260507050048 50 290 0.0 2.0 0.00 0.49 0.00 97 1016.6
20260507045525 50 0 0.0 0.0 0.00 0.49 0.00 97 1016.6
20260507045027 50 0 0.0 0.0 0.00 0.49 0.00 97 1016.4
20260507044542 50 0 0.0 0.0 0.00 0.49 0.00 97 1016.5
20260507044023 51 0 0.0 0.0 0.00 0.49 0.00 97 1016.6
20260507043523 50 0 0.0 0.0 0.00 0.49 0.00 97 1016.6
20260507043041 50 0 0.0 0.0 0.00 0.49 0.00 97 1016.5
20260507042528 50 0 0.0 0.0 0.00 0.49 0.00 96 1016.5
20260507042026 50 0 0.0 0.0 0.00 0.49 0.00 96 1016.5
20260507041540 50 0 0.0 0.0 0.00 0.49 0.00 96 1016.5
20260507041032 50 0 0.0 0.0 0.00 0.49 0.00 96 1016.4
20260507040525 50 0 0.0 0.0 0.00 0.49 0.00 96 1016.3
20260507040047 50 0 0.0 0.0 0.00 0.49 0.00 96 1016.4
20260507035525 50 0 0.0 0.0 0.00 0.49 0.49 96 1016.3
20260507035029 51 0 0.0 0.0 0.00 0.49 0.49 96 1016.2
20260507034542 50 0 0.0 0.0 0.00 0.49 0.49 96 1016.1
20260507034024 50 0 0.0 0.0 0.00 0.49 0.49 96 1016.2
20260507033528 50 0 0.0 0.0 0.00 0.49 0.49 96 1016.4
20260507033045 50 0 0.0 0.0 0.00 0.49 0.49 96 1016.3
20260507032524 50 0 0.0 0.0 0.00 0.49 0.49 96 1016.2
20260507032024 50 0 0.0 0.0 0.00 0.49 0.49 96 1016.4
20260507031544 51 0 0.0 0.0 0.00 0.49 0.49 96 1016.5
20260507031023 51 0 0.0 0.0 0.00 0.49 0.49 96 1016.7
20260507030526 50 0 0.0 0.0 0.00 0.49 0.49 96 1016.8
20260507030040 51 0 0.0 0.0 0.00 0.49 0.49 96 1016.6
20260507025530 51 0 0.0 0.0 0.00 0.49 0.49 96 1016.6
20260507025027 51 0 0.0 0.0 0.00 0.49 0.49 95 1016.4
20260507024546 50 0 0.0 0.0 0.00 0.49 0.49 95 1016.1
20260507024024 51 0 0.0 0.0 0.00 0.49 0.49 95 1016.1
20260507023524 51 0 0.0 0.0 0.00 0.49 0.49 95 1016.3
20260507023042 51 0 0.0 0.0 0.00 0.49 0.49 95 1015.9
20260507022524 51 0 0.0 0.0 0.00 0.49 0.49 95 1016.0
20260507022024 51 0 0.0 0.0 0.00 0.49 0.49 95 1016.0
20260507021545 51 0 0.0 0.0 0.00 0.49 0.49 95 1016.1
20260507021024 51 0 0.0 0.0 0.00 0.49 0.49 95 1016.0
20260507020524 51 0 0.0 0.0 0.00 0.49 0.49 95 1015.7
20260507020100 51 0 0.0 0.0 0.00 0.49 0.49 95 1015.8
20260507015526 51 0 0.0 0.0 0.00 0.49 0.49 95 1015.9
20260507015027 51 0 0.0 0.0 0.00 0.49 0.49 95 1016.0
20260507014546 51 0 0.0 0.0 0.00 0.49 0.49 95 1015.9
20260507014023 51 0 0.0 0.0 0.00 0.49 0.49 95 1015.7
20260507013524 51 0 0.0 0.0 0.00 0.49 0.49 94 1015.6
20260507013041 51 0 0.0 0.0 0.00 0.49 0.49 94 1015.7
20260507012524 51 0 0.0 0.0 0.00 0.49 0.49 94 1015.8
20260507012024 51 0 0.0 0.0 0.00 0.49 0.49 94 1015.8
20260507011541 51 0 0.0 0.0 0.00 0.49 0.49 94 1016.1
20260507011023 51 0 0.0 0.0 0.00 0.49 0.49 94 1015.9
20260507010524 51 0 0.0 0.0 0.00 0.49 0.49 94 1015.5
20260507010058 51 0 0.0 0.0 0.00 0.49 0.49 94 1015.4
20260507005523 51 0 0.0 0.0 0.00 0.49 0.49 94 1015.2
20260507005024 51 0 0.0 0.0 0.00 0.49 0.49 94 1015.2
20260507004545 51 0 0.0 0.0 0.00 0.49 0.49 94 1015.1
20260507004024 51 0 0.0 0.0 0.00 0.49 0.49 94 1015.2
20260507003524 51 0 0.0 0.0 0.00 0.49 0.49 94 1015.3
20260507003046 51 0 0.0 0.0 0.00 0.49 0.49 94 1015.5
20260507002523 51 0 0.0 0.0 0.00 0.49 0.49 94 1015.4
20260507002028 51 0 0.0 0.0 0.00 0.49 0.49 93 1015.4
20260507001554 51 0 0.0 0.0 0.00 0.49 0.49 93 1015.4
20260507001024 51 0 0.0 0.0 0.00 0.49 0.49 93 1015.2
20260507000524 51 0 0.0 0.0 0.00 0.49 0.49 92 1015.2
20260507000039 52 0 0.0 1.0 0.00 0.49 0.49 92 1015.5
20260506235524 52 0 0.0 1.0 0.00 0.49 0.49 92 1016.0
20260506235023 52 153 0.0 1.0 0.00 0.49 0.49 91 1015.8
20260506234547 52 0 0.0 1.0 0.00 0.49 0.49 92 1015.8
20260506234024 52 0 0.0 1.0 0.00 0.49 0.49 91 1015.6
20260506233524 52 0 0.0 1.0 0.00 0.49 0.49 92 1015.4
20260506233045 52 0 0.0 0.0 0.00 0.49 0.49 92 1015.6
20260506232526 52 0 0.0 0.0 0.00 0.49 0.49 91 1015.5
20260506232023 52 0 0.0 1.0 0.00 0.49 0.49 90 1015.5
20260506231604 52 0 0.0 1.0 0.00 0.49 0.49 90 1015.5
20260506231024 52 0 0.0 1.0 0.00 0.49 0.49 91 1015.4
20260506230523 52 0 0.0 0.0 0.00 0.49 0.49 92 1015.4
20260506230058 52 0 0.0 1.0 0.00 0.49 0.49 91 1015.6
20260506225526 52 0 0.0 1.0 0.00 0.49 0.49 92 1015.7
20260506225024 52 285 0.0 1.0 0.00 0.49 0.49 92 1015.4
20260506224540 52 0 0.0 1.0 0.00 0.49 0.49 93 1015.2
20260506224026 52 0 0.0 0.0 0.00 0.49 0.49 94 1015.2
20260506223523 53 0 0.0 0.0 0.00 0.49 0.49 94 1015.3
20260506223045 53 0 0.0 0.0 0.00 0.49 0.49 94 1015.2
20260506222524 53 0 0.0 0.0 0.00 0.49 0.49 94 1015.1
20260506222024 53 0 0.0 0.0 0.00 0.49 0.49 94 1015.1
20260506221605 53 0 0.0 0.0 0.00 0.49 0.49 94 1015.0
20260506221023 53 0 0.0 0.0 0.00 0.49 0.49 93 1015.1
20260506220523 53 0 0.0 0.0 0.00 0.49 0.49 93 1015.0
20260506220058 53 0 0.0 0.0 0.00 0.49 0.49 93 1015.0
20260506215526 53 0 0.0 1.0 0.00 0.49 0.49 93 1014.9
20260506215024 53 0 0.0 1.0 0.00 0.49 0.49 93 1014.9
20260506214548 53 0 0.0 0.0 0.00 0.49 0.49 92 1014.7
20260506214024 53 46 0.0 1.0 0.00 0.49 0.49 92 1014.6
20260506213524 53 0 0.0 1.0 0.00 0.49 0.49 92 1014.7
20260506213046 53 0 0.0 1.0 0.00 0.49 0.49 91 1014.7
20260506212524 53 0 0.0 0.0 0.00 0.49 0.49 91 1014.6
20260506212025 53 0 0.0 0.0 0.00 0.49 0.49 92 1014.6
20260506211540 53 0 0.0 0.0 0.00 0.49 0.49 92 1014.5
20260506211024 53 0 0.0 0.0 0.00 0.49 0.49 92 1014.4
20260506210523 53 0 0.0 0.0 0.00 0.49 0.49 92 1014.3
20260506210053 53 0 0.0 0.0 0.00 0.49 0.49 91 1014.2
20260506205523 53 0 0.0 1.0 0.00 0.49 0.49 91 1014.2
20260506205023 53 0 0.0 1.0 0.00 0.49 0.49 91 1014.1
20260506204541 53 323 0.0 1.0 0.00 0.49 0.49 91 1014.1
20260506204023 53 319 0.0 1.0 0.00 0.49 0.49 92 1014.0
20260506203524 53 352 0.0 1.0 0.00 0.49 0.49 92 1014.2
20260506203040 53 0 0.0 0.0 0.00 0.49 0.49 93 1014.1
20260506202523 53 0 0.0 2.0 0.00 0.49 0.49 93 1013.9
20260506202023 53 0 0.0 2.0 0.00 0.49 0.49 92 1014.0
20260506201545 53 317 0.0 1.0 0.00 0.49 0.49 92 1014.2
20260506201024 53 0 1.0 1.0 0.00 0.49 0.49 93 1014.1
20260506200522 53 0 0.0 2.0 0.00 0.49 0.49 93 1014.1
20260506200039 52 304 1.0 2.0 0.00 0.49 0.49 93 1014.0
20260506195524 52 0 0.0 2.0 0.00 0.49 0.49 93 1013.8
20260506195024 53 0 0.0 2.0 0.00 0.49 0.49 94 1013.8
20260506194544 52 0 0.0 2.0 0.00 0.49 0.49 94 1013.9
20260506194027 52 0 0.0 2.0 0.00 0.49 0.49 94 1013.9
20260506193523 52 0 0.0 1.0 0.00 0.49 0.49 95 1013.7
20260506193041 52 302 0.0 1.0 0.00 0.49 0.49 95 1013.8
20260506192524 52 0 0.0 2.0 0.00 0.49 0.49 95 1013.8
20260506192028 52 0 0.0 2.0 0.00 0.49 0.49 95 1013.9
20260506191543 52 0 1.0 2.0 0.00 0.49 0.49 95 1013.9
20260506191024 52 302 0.0 5.0 0.00 0.49 0.49 95 1013.9
20260506190524 52 321 1.0 5.0 0.00 0.49 0.49 95 1013.9
20260506190043 52 314 1.0 5.0 0.00 0.49 0.49 95 1014.0
20260506185524 52 319 0.0 3.0 0.00 0.49 0.49 96 1013.7
20260506185024 52 300 1.0 4.0 0.00 0.49 0.49 95 1013.7
20260506184542 53 302 2.0 6.0 0.00 0.49 0.49 95 1013.7
20260506184025 53 292 1.0 6.0 0.00 0.49 0.49 95 1013.5
20260506183527 53 35 2.0 5.0 0.01 0.49 0.49 95 1013.6
20260506183045 53 59 1.0 3.0 0.01 0.49 0.49 96 1013.6
20260506182530 53 300 1.0 4.0 0.01 0.49 0.49 95 1013.3
20260506182030 53 302 1.0 4.0 0.01 0.49 0.49 96 1013.2
20260506181546 54 305 0.0 4.0 0.01 0.49 0.49 96 1013.3
20260506181027 54 274 0.0 2.0 0.01 0.49 0.49 96 1013.3
20260506180527 54 0 1.0 2.0 0.01 0.49 0.49 96 1013.4
20260506180047 54 331 0.0 0.0 0.01 0.49 0.49 96 1013.5
20260506175526 54 0 0.0 0.0 0.01 0.49 0.49 96 1013.4
20260506175023 54 0 0.0 0.0 0.01 0.49 0.49 97 1013.5
20260506174544 54 0 0.0 0.0 0.01 0.49 0.49 96 1013.4
20260506174026 54 0 0.0 0.0 0.01 0.49 0.49 96 1013.5
20260506173527 54 0 0.0 1.0 0.00 0.48 0.48 96 1013.4
20260506173047 54 0 0.0 1.0 0.00 0.48 0.48 96 1013.3
20260506172527 54 345 0.0 1.0 0.00 0.48 0.48 96 1013.3
20260506172030 54 358 0.0 1.0 0.00 0.48 0.48 96 1013.3
20260506171556 54 0 0.0 1.0 0.00 0.48 0.48 96 1013.0
20260506171027 54 344 0.0 2.0 0.00 0.48 0.48 96 1013.2
20260506170530 54 322 0.0 2.0 0.01 0.48 0.48 96 1013.0
20260506170050 54 307 1.0 2.0 0.02 0.48 0.48 96 1013.1